GEFSMA_500_meanwind_240.txt.gz
Wind_Speed
7 7 6 5 4 4 4 3 3 2 2 1 2 1 1 2 3 3 4 4 4 5 6 7 7 6 6 7 7 7 7 7 7 7 8 8 8 9 9 9 9 10 10
7 5 4 4 4 3 3 3 2 2 2 2 2 2 3 3 4 4 4 5 6 6 7 8 8 8 8 8 9 9 9 9 8 9 9 9 9 10 10 10 11 11 11
5 4 4 4 3 3 2 2 2 2 2 2 2 3 3 4 4 5 5 6 7 7 8 8 9 9 9 9 9 9 10 10 11 10 9 10 10 10 10 10 11 12 12
4 4 3 2 2 3 2 2 2 3 3 3 3 4 4 5 6 6 7 7 8 8 8 9 9 10 10 10 10 10 11 11 11 10 10 10 10 10 11 11 12 13 12
4 4 3 2 1 2 2 3 3 4 5 5 5 6 6 7 8 8 8 9 9 10 10 10 11 11 11 11 11 11 11 12 11 12 12 12 12 13 13 13 13 13 13
4 4 3 2 1 1 2 3 3 4 5 5 6 7 8 8 8 8 9 9 10 11 11 12 11 11 11 11 12 13 13 13 13 13 14 13 13 14 14 14 14 14 14
3 3 2 2 1 2 2 3 4 4 5 6 7 8 8 9 9 9 10 10 11 12 12 12 12 12 12 13 13 14 15 15 14 15 15 15 15 15 15 15 14 14 15
3 2 2 2 2 2 2 3 3 5 6 7 8 9 9 10 10 10 11 11 12 13 13 14 13 13 13 14 14 15 15 14 15 16 16 16 16 16 16 15 14 15 15
3 2 1 2 3 3 3 4 5 6 7 7 8 9 10 11 11 12 12 12 12 13 14 15 15 15 15 15 16 16 16 16 16 16 16 16 16 16 16 16 16 16 15
4 4 3 3 3 4 5 5 6 7 7 8 8 9 10 11 11 11 12 13 14 14 14 15 16 16 16 16 17 17 17 17 17 17 17 17 17 16 16 16 16 15 15
5 5 5 5 5 5 6 6 7 8 8 9 9 10 11 12 12 12 13 13 14 15 15 16 16 16 16 17 17 17 17 17 17 18 18 18 18 18 17 16 16 16 15
6 6 7 7 7 7 7 7 8 9 9 10 11 11 12 12 13 13 13 14 14 15 15 16 16 16 16 17 17 18 18 18 18 18 19 19 18 17 17 16 16 16 16
7 7 8 8 8 8 8 8 9 10 11 11 12 13 14 14 14 14 14 14 14 15 16 16 16 16 16 16 17 18 18 19 19 19 19 18 18 17 16 15 15 15 14
8 8 8 8 9 9 9 9 10 11 12 12 13 14 14 14 14 14 14 14 15 15 15 16 16 16 16 16 16 17 17 18 19 19 19 18 18 18 16 15 15 15 15
8 9 9 9 9 10 10 11 11 12 12 13 14 14 15 15 15 15 15 15 15 15 15 16 16 16 16 16 16 17 17 17 16 17 18 17 17 16 16 15 16 16 16
10 10 10 11 11 12 13 13 13 13 13 14 15 15 15 15 15 15 15 16 16 16 16 17 17 16 16 16 16 16 16 16 16 16 15 15 16 17 16 16 16 17 16
11 11 12 13 13 13 14 14 15 15 15 15 16 16 15 15 15 15 16 16 17 17 17 17 17 17 17 17 16 16 16 16 15 15 15 15 15 15 16 16 17 17 17
13 13 14 14 14 14 14 15 15 16 16 16 17 16 16 16 16 16 16 17 17 17 17 18 18 18 18 18 17 17 16 16 15 14 14 14 15 16 17 17 17 18 18
14 15 15 15 15 16 16 16 16 16 16 17 17 17 17 17 17 17 17 17 18 18 18 18 18 19 19 19 18 17 17 16 14 13 14 14 15 16 17 17 18 19 19
16 16 17 16 16 16 16 17 17 17 17 17 18 18 18 18 18 18 18 18 18 18 18 19 19 19 18 18 17 17 16 15 14 14 14 15 16 16 17 18 19 19 19
17 17 18 18 17 17 17 17 18 18 18 18 18 19 19 18 18 18 18 19 19 19 19 19 19 18 18 17 18 17 16 15 15 15 16 16 17 17 18 19 19 19 19
19 19 19 19 18 18 18 19 19 19 19 20 20 20 20 19 18 19 19 19 19 20 20 19 18 18 17 17 17 16 15 15 15 16 16 17 18 18 19 20 20 20 20
21 20 20 20 19 19 20 20 20 21 21 21 21 21 20 20 20 20 20 20 20 20 20 20 19 19 19 17 17 16 16 16 16 17 17 18 18 19 20 20 20 20 21
22 22 21 21 21 21 21 22 22 22 23 23 23 22 22 21 21 21 21 21 21 21 21 20 19 19 19 19 18 18 18 18 18 18 18 19 19 20 20 21 21 21 22
24 24 24 24 24 23 24 24 24 24 25 24 24 24 23 23 23 23 23 23 23 23 22 22 21 20 20 20 19 19 19 19 19 20 19 19 20 20 21 21 21 22 22
27 27 26 26 26 26 27 27 27 27 27 26 26 25 25 24 25 25 25 25 24 23 23 23 22 22 22 22 22 22 21 21 21 21 21 21 21 21 22 22 23 23 23

GEFSMA_500_meanwind_246.txt.gz
Wind_Speed
5 4 4 3 3 2 1 1 1 0 0 1 1 2 3 3 3 4 4 5 6 6 7 7 7 8 8 8 9 9 9 9 9 9 9 8 8 8 9 9 9 9 9
3 3 2 2 1 1 1 1 0 1 2 2 3 3 4 4 3 5 5 6 6 7 7 8 8 9 9 9 9 9 10 10 10 9 10 11 10 10 11 10 10 10 10
2 2 2 2 1 1 1 1 1 2 2 3 4 4 4 5 5 6 6 7 7 8 9 9 9 10 11 10 10 10 10 10 11 11 11 10 10 10 11 11 11 11 11
2 2 1 1 1 2 2 2 2 2 3 4 5 5 6 7 7 8 8 8 8 9 10 10 10 10 11 11 11 11 11 11 11 11 12 12 12 11 11 11 12 12 12
2 2 2 2 2 2 2 2 3 4 4 5 6 6 7 8 8 9 9 9 10 10 10 11 11 11 11 11 12 12 12 12 12 12 12 12 12 12 11 12 12 13 14
4 3 3 3 3 3 3 4 4 5 5 6 7 7 8 9 9 9 10 10 10 10 11 11 12 12 12 13 12 12 12 13 12 13 13 13 14 14 12 13 14 13 14
5 4 3 3 4 4 4 5 5 5 6 7 8 8 8 9 10 10 11 11 11 11 11 12 12 13 13 14 13 13 13 13 13 14 14 15 15 14 13 13 13 14 14
4 4 3 3 4 5 5 5 6 7 7 8 8 9 9 10 10 11 12 12 13 13 13 13 13 13 14 14 14 14 14 14 14 14 15 15 15 14 14 14 14 14 15
5 5 4 4 5 6 6 6 7 8 8 8 9 9 9 10 10 12 12 13 13 14 14 14 14 14 14 14 14 15 14 14 14 14 15 15 16 15 14 14 14 14 14
5 6 6 6 6 7 7 7 8 8 9 9 10 10 11 11 12 12 13 13 14 14 14 14 15 15 15 15 15 16 16 16 15 15 16 16 17 16 15 15 15 14 14
6 7 7 7 7 7 8 8 8 9 9 10 11 11 12 12 13 13 14 14 14 15 15 16 16 15 15 15 16 16 16 16 16 16 16 17 17 17 17 16 15 15 15
7 8 8 8 8 8 8 9 9 9 10 11 11 12 13 14 14 14 15 15 15 15 16 16 16 16 16 16 17 17 17 16 17 16 16 16 16 17 17 16 15 15 14
8 8 9 9 9 10 10 9 10 10 11 12 13 14 15 15 15 15 16 16 16 16 16 16 16 16 16 16 17 17 17 17 17 17 17 16 16 16 16 16 15 15 15
9 10 10 10 10 10 10 11 11 12 13 14 14 15 16 16 16 16 16 16 16 17 17 16 17 17 17 17 17 17 17 18 18 18 17 17 16 16 16 16 15 15 15
10 11 11 11 11 11 11 11 12 13 14 15 16 16 17 17 17 17 17 17 17 17 17 17 17 17 17 18 17 17 17 17 17 17 17 17 16 17 16 15 14 14 14
12 12 12 12 12 13 13 13 13 13 15 16 16 17 17 18 18 18 18 18 17 18 18 17 17 17 17 17 17 17 17 17 17 17 16 16 16 16 15 15 15 15 14
14 14 14 14 14 14 15 15 15 15 15 16 17 18 18 18 18 18 18 18 18 18 18 18 18 18 17 18 18 17 18 18 17 17 16 16 15 15 15 15 15 14 14
16 16 15 15 15 15 16 16 16 16 17 17 18 19 19 19 19 19 18 18 18 18 18 18 18 18 18 18 17 17 18 18 17 17 16 15 14 14 15 15 14 14 14
17 17 17 17 17 17 17 17 18 18 18 18 19 19 20 20 20 20 20 20 19 20 20 20 19 19 18 17 17 17 17 17 17 17 16 15 14 14 15 15 15 15 15
19 18 18 19 19 19 19 19 19 19 20 20 20 20 20 21 20 21 21 21 21 21 21 21 20 19 19 18 18 18 18 17 17 16 15 14 15 15 16 16 16 16 17
21 20 20 21 21 20 20 21 20 21 21 21 21 21 22 21 21 21 22 22 22 21 21 20 20 20 19 19 19 19 19 18 18 16 15 15 16 16 16 16 17 17 17
23 22 23 22 22 23 23 22 21 22 22 22 22 22 22 22 22 22 21 22 22 21 21 20 20 19 19 19 19 19 19 18 17 16 16 16 16 16 16 17 17 17 18
25 25 24 24 25 25 26 24 23 24 24 24 24 23 23 23 23 22 22 22 22 22 21 21 21 20 20 21 20 20 19 18 18 17 17 18 18 17 17 17 18 18 19
28 27 26 26 26 28 27 26 26 25 25 25 25 25 25 25 25 24 23 23 23 23 23 23 22 22 22 21 21 21 21 20 20 20 19 19 20 19 19 19 19 19 20
28 29 29 29 29 29 28 28 27 27 27 27 27 27 27 26 26 26 25 25 25 25 25 24 24 24 23 23 23 23 22 22 22 22 22 21 21 21 20 20 20 20 21
30 31 31 31 31 31 31 31 29 29 29 29 29 29 28 27 27 27 27 27 26 26 26 26 25 25 25 24 25 24 24 23 23 24 23 23 23 23 23 22 22 21 22

GEFSMA_500_meanwind_252.txt.gz
Wind_Speed
6 7 7 6 5 4 4 3 3 3 2 2 1 1 1 1 3 3 4 3 3 3 4 4 5 5 6 6 6 7 6 7 7 8 8 8 8 8 8 8 9 9 9
6 6 5 5 4 4 3 3 2 2 1 0 1 2 3 3 4 4 4 4 4 5 6 6 6 6 6 7 7 7 7 8 8 8 9 9 9 9 10 10 11 11 11
6 5 4 4 3 3 2 2 1 1 0 1 2 3 4 4 4 5 6 6 6 6 6 7 7 7 7 7 8 8 8 8 9 9 8 9 9 10 11 12 12 12 13
5 5 5 4 3 2 1 0 0 1 1 2 3 4 4 4 5 6 7 7 8 7 7 7 8 7 7 8 8 8 9 10 10 10 10 10 10 11 11 12 13 14 13
5 5 5 4 3 2 2 1 1 1 2 3 4 4 5 5 5 6 6 7 8 8 8 8 9 8 8 9 9 10 9 10 11 11 11 11 11 11 12 12 13 14 14
5 5 4 4 3 3 3 2 1 3 3 4 4 5 5 6 6 6 7 7 8 8 9 9 10 10 9 10 10 10 10 10 11 12 12 12 12 13 13 13 13 14 14
5 4 3 3 3 3 3 3 3 4 4 5 6 6 6 6 7 7 8 8 8 9 9 10 10 10 10 10 11 11 11 11 11 12 12 13 13 13 13 14 14 14 14
5 4 3 3 3 3 3 4 4 5 5 6 6 6 6 7 8 8 8 9 10 10 11 10 11 11 11 11 11 11 12 12 12 12 13 14 14 14 14 15 14 14 15
4 3 3 2 3 4 4 5 5 5 5 6 7 7 7 8 9 9 9 10 11 11 11 11 12 12 12 12 12 12 12 13 13 13 13 14 14 15 15 15 15 15 14
4 3 3 3 3 4 5 6 6 6 6 7 7 8 8 9 9 10 10 11 11 12 12 12 13 13 13 13 13 13 13 13 14 14 14 14 14 15 14 14 14 14 14
4 4 4 4 5 6 6 7 6 7 7 8 8 9 9 9 10 11 11 12 12 12 13 13 14 14 14 14 14 14 14 14 14 14 14 15 15 16 15 14 14 14 14
5 5 5 5 6 7 7 7 8 8 8 9 9 9 10 10 11 11 12 13 13 13 13 13 14 14 14 15 14 14 14 14 14 14 14 15 15 15 15 14 14 14 13
6 6 6 7 8 8 8 8 9 9 9 9 10 10 10 11 12 13 13 14 14 13 13 13 14 14 14 15 14 14 14 14 14 14 15 15 15 15 15 14 14 14 14
7 7 8 8 9 9 10 10 11 11 11 11 11 11 11 12 13 14 14 14 14 14 13 13 14 14 14 14 15 14 14 14 13 14 14 15 15 15 15 15 14 15 15
8 8 8 10 10 11 12 12 11 12 12 12 12 12 13 13 14 14 15 15 15 14 14 14 14 14 14 14 14 14 13 13 13 14 14 14 14 15 15 14 14 14 14
9 10 10 11 12 13 13 13 12 12 13 13 14 14 15 15 15 15 16 16 15 15 14 15 15 15 14 14 14 14 14 14 15 15 15 14 15 14 14 14 14 14 15
10 11 12 13 13 13 13 13 13 13 14 15 15 15 16 16 16 16 16 17 16 16 16 16 16 16 15 15 15 15 15 15 15 15 15 14 14 14 15 15 15 15 15
11 12 13 14 15 14 14 14 14 15 15 16 17 17 17 17 17 17 17 17 18 17 17 17 17 17 16 16 16 16 16 16 16 16 16 15 15 15 15 16 16 16 16
13 14 14 15 15 15 16 16 16 16 17 17 18 18 18 18 19 19 18 17 18 18 18 18 18 18 18 17 17 17 16 16 16 16 16 15 15 15 16 17 17 17 18
16 16 16 16 16 17 17 17 18 19 19 19 19 20 19 20 20 20 19 19 19 20 20 19 19 19 19 18 18 17 17 16 16 16 15 15 15 15 16 17 17 17 18
18 18 18 18 19 20 20 19 20 21 21 21 21 21 21 21 21 21 21 21 20 21 20 20 20 20 19 19 18 18 17 17 17 17 17 16 16 16 17 17 17 19 19
19 20 20 21 21 22 22 22 23 23 23 23 24 23 23 23 22 22 22 22 21 22 22 21 21 20 19 19 19 19 18 18 17 17 18 18 18 18 18 18 18 19 19
21 21 22 23 24 24 24 24 24 24 25 25 26 26 26 25 24 24 23 22 23 23 23 22 22 21 21 21 20 19 18 18 18 18 19 19 19 19 19 20 20 20 20
24 24 25 26 26 26 25 25 25 26 26 26 26 26 26 26 26 25 24 24 24 24 24 24 23 23 22 22 21 21 20 20 20 21 20 20 20 20 21 21 21 21 21
27 27 27 28 28 28 27 27 27 27 27 26 27 27 27 27 27 26 25 25 25 25 25 24 24 23 23 23 23 22 22 23 22 23 23 22 22 23 23 23 23 23 23
28 29 29 29 29 29 29 29 29 28 28 27 28 28 28 28 27 26 26 26 26 26 26 26 25 25 24 24 25 25 24 25 25 24 24 24 25 24 24 24 24 24 23

GEFSMA_500_meanwind_258.txt.gz
Wind_Speed
7 6 6 6 5 4 4 3 2 1 1 1 1 1 2 2 3 4 5 5 5 5 6 7 7 7 8 8 8 8 9 9 8 8 9 10 9 9 10 11 10 11 10
7 5 5 4 4 3 3 2 1 0 0 0 1 2 3 3 4 5 6 6 6 7 8 8 8 8 9 9 9 9 9 10 10 10 10 10 10 10 10 11 11 11 12
5 5 4 4 3 3 2 1 1 0 1 1 2 3 4 4 5 6 6 7 7 8 8 9 9 9 9 10 10 10 10 10 10 10 10 11 11 11 10 11 11 12 13
4 5 4 3 3 2 1 1 1 1 2 3 3 4 5 6 6 6 7 7 8 9 9 9 10 10 10 10 10 10 10 11 11 12 12 11 12 12 12 12 12 12 13
4 3 4 4 3 2 1 2 2 2 3 3 4 5 6 6 7 7 8 8 8 9 10 10 10 10 11 10 11 11 11 12 12 13 13 13 13 13 13 13 13 13 13
4 4 3 3 2 2 2 3 3 3 3 4 5 6 6 7 8 9 9 9 9 10 11 11 11 11 11 12 12 12 12 13 13 13 13 13 14 14 14 14 14 14 14
3 3 2 2 2 3 3 4 4 4 5 5 5 6 7 7 8 9 9 10 10 11 12 12 12 12 12 12 13 14 13 13 14 14 13 13 13 13 14 15 15 15 15
3 3 2 2 3 3 4 5 5 5 6 6 7 7 8 8 8 9 10 10 11 12 12 12 12 12 13 13 13 14 14 14 14 14 14 14 14 14 14 14 15 15 16
3 2 1 2 3 4 5 5 6 7 7 7 8 8 9 9 10 10 11 12 12 13 13 12 12 12 13 14 14 15 15 15 15 15 15 15 15 14 14 15 15 16 15
3 2 2 2 3 5 5 6 7 8 8 8 9 9 10 10 10 11 12 12 13 13 13 13 13 13 14 14 15 15 16 16 16 15 15 15 15 16 16 16 15 16 15
3 2 3 3 5 6 6 7 8 9 9 9 10 10 11 11 12 12 12 13 13 14 14 14 14 14 14 14 15 15 16 16 16 15 15 15 15 15 16 16 16 16 16
3 3 4 5 6 6 7 8 9 10 10 10 11 11 12 12 13 13 13 14 14 14 14 14 14 14 14 15 15 15 15 15 15 15 15 15 15 15 15 16 17 17 16
4 4 5 6 7 7 8 9 10 11 11 11 12 13 13 13 14 14 14 14 15 15 15 15 15 15 14 15 15 14 14 14 14 14 15 16 16 16 16 16 16 16 16
5 5 6 8 8 8 9 10 11 12 13 13 14 13 14 14 14 15 15 16 16 17 16 16 15 15 15 15 15 14 14 14 14 14 15 16 16 16 16 17 17 17 16
6 7 8 9 10 10 11 12 13 13 14 14 14 15 15 15 15 16 16 17 17 17 17 17 16 16 15 16 16 15 15 15 15 15 15 16 16 16 17 17 17 17 17
7 8 9 10 11 12 13 14 14 15 16 16 16 17 17 16 17 17 18 18 19 18 17 18 18 17 17 17 17 17 17 17 17 16 16 16 16 16 17 17 17 17 16
9 10 11 11 13 13 14 15 16 17 17 17 17 17 17 18 18 19 20 20 20 19 19 18 18 18 18 19 18 18 18 18 18 17 17 17 16 17 17 17 17 16 16
11 12 12 13 14 14 15 16 17 18 19 19 19 19 18 19 19 20 21 21 20 19 19 19 18 18 19 19 19 19 19 19 19 19 18 18 17 17 17 17 17 16 16
13 14 14 15 16 17 18 18 18 19 20 21 21 20 20 20 20 21 22 22 22 21 20 20 20 19 20 19 20 20 20 20 19 19 19 18 18 17 17 17 17 17 17
15 16 17 18 19 19 19 20 21 22 22 23 23 22 22 22 22 22 22 23 23 23 22 21 21 21 21 21 21 21 21 21 20 20 20 19 18 18 18 18 18 18 18
17 18 19 19 19 20 21 22 23 24 24 25 25 24 24 24 24 24 24 24 24 24 24 23 23 23 23 23 23 22 22 22 21 21 20 20 19 19 19 18 18 19 19
19 20 20 20 20 21 22 23 24 25 25 26 26 26 26 26 25 25 25 25 26 26 25 25 24 24 24 24 24 23 23 22 22 22 22 21 21 20 20 20 19 19 20
20 21 21 22 22 23 24 25 26 26 27 27 27 27 28 27 27 27 27 27 27 27 27 26 25 25 25 25 25 25 24 24 23 23 23 22 22 22 21 21 20 20 20
23 24 24 24 25 26 27 28 28 28 28 29 29 28 28 28 28 28 28 28 28 28 27 26 26 26 26 26 26 26 26 26 25 24 23 23 23 23 23 22 22 22 22
26 27 27 27 27 29 29 29 30 29 30 30 30 29 29 29 29 29 29 29 29 28 27 27 27 27 27 27 27 27 27 27 26 25 25 25 25 25 25 24 24 24 24
29 30 28 29 30 30 30 30 30 31 31 31 31 31 31 30 29 30 29 28 28 28 28 28 28 28 28 27 27 27 27 27 26 27 26 27 27 26 26 26 26 26 26

GEFSMA_500_meanwind_264.txt.gz
Wind_Speed
7 7 6 6 5 4 3 3 3 3 3 2 1 1 1 2 3 4 5 5 6 6 6 7 7 7 8 9 9 9 9 9 9 9 10 10 10 11 12 12 13 13 12
6 5 5 5 4 4 3 3 2 2 1 1 0 1 2 3 4 5 6 6 6 7 7 8 8 8 8 9 9 9 9 10 10 10 10 11 11 11 12 12 13 14 13
6 4 4 4 4 3 3 2 2 1 0 1 1 2 3 4 6 6 7 7 7 8 8 9 9 9 10 10 10 10 10 10 11 11 11 11 12 12 11 12 13 13 14
5 5 4 3 3 3 2 1 0 0 1 1 2 3 4 5 6 7 7 7 8 8 9 9 10 10 10 10 10 11 11 11 12 12 12 13 13 13 13 13 13 14 14
4 4 3 3 2 2 1 0 1 1 2 2 3 4 5 5 6 7 7 7 9 10 10 10 10 11 11 12 12 12 12 12 13 13 14 14 14 14 14 14 14 14 14
3 3 3 3 2 2 1 0 1 2 2 3 4 5 5 6 7 8 8 9 10 10 11 11 11 11 11 12 12 13 13 13 14 14 15 15 15 14 14 14 14 14 14
3 2 2 2 2 1 1 1 2 2 3 3 4 5 6 7 8 8 9 9 10 11 11 11 12 12 12 12 12 13 14 14 14 15 15 14 14 14 14 13 14 14 14
2 2 2 2 1 0 1 2 3 3 4 5 5 6 7 8 9 9 10 10 11 11 11 12 12 12 13 13 13 14 14 15 15 15 15 15 14 14 14 14 15 14 14
1 2 3 2 0 1 2 3 4 5 5 6 6 7 8 9 10 11 11 11 11 12 12 12 13 13 13 13 14 14 14 15 16 16 16 16 15 14 15 14 14 15 15
1 1 1 0 1 2 3 4 5 6 6 7 8 8 10 11 11 12 12 12 12 12 12 13 13 14 14 14 14 15 15 16 15 15 15 15 15 14 15 15 15 15 16
0 0 1 1 2 2 3 5 6 7 8 9 9 10 11 12 12 12 12 12 12 13 13 14 14 14 14 15 15 15 15 16 15 15 16 16 15 15 15 16 16 16 16
1 1 1 2 3 4 5 6 7 8 9 10 11 11 12 13 13 13 13 13 13 14 14 15 15 15 15 15 15 15 16 16 16 16 16 15 15 15 16 16 16 16 16
2 2 3 3 4 5 7 8 9 10 11 12 12 13 13 13 14 14 14 14 14 15 16 16 16 16 16 16 16 16 16 16 16 17 16 16 16 16 16 16 16 16 16
3 4 4 5 6 7 8 9 10 11 12 13 14 15 15 15 15 15 15 15 15 16 17 17 17 17 16 16 16 16 16 17 17 16 16 17 17 17 16 16 16 16 16
5 5 6 6 7 8 9 10 12 13 14 15 16 17 17 17 17 16 15 16 17 17 18 18 18 18 18 18 17 18 18 18 18 17 17 18 18 18 17 16 17 17 16
7 7 7 8 9 10 11 12 14 15 15 16 17 18 18 18 18 17 17 17 18 18 18 19 20 20 20 19 18 19 19 19 19 18 18 18 18 18 17 17 17 17 17
9 9 10 10 11 13 14 15 16 17 18 18 18 18 19 18 19 19 19 20 20 20 20 20 20 21 21 21 20 19 19 19 19 19 19 19 18 18 18 17 17 17 17
11 11 12 13 14 15 15 16 17 18 19 19 20 20 19 19 20 20 21 21 21 22 22 22 22 22 22 22 21 20 20 20 20 19 20 20 19 19 19 18 18 18 18
13 14 15 16 16 16 17 18 19 19 20 20 20 20 20 20 21 22 22 22 23 23 23 23 23 23 23 23 22 22 22 21 21 21 20 20 20 20 20 19 19 19 19
17 17 17 17 17 18 18 19 20 20 20 20 20 21 22 23 24 24 24 24 24 24 24 25 25 24 24 24 24 23 23 23 23 22 21 21 21 21 21 20 20 20 20
18 18 18 18 19 19 20 21 21 21 22 22 23 23 24 24 24 25 24 24 25 26 26 26 25 25 25 24 24 25 24 24 24 23 23 22 22 22 21 21 21 20 21
18 18 19 20 20 21 22 23 23 24 24 24 24 25 25 25 25 25 26 26 26 27 27 27 26 27 27 26 26 26 25 25 24 24 24 24 24 23 23 22 22 21 21
21 20 20 21 21 22 24 25 25 25 26 26 26 26 27 27 26 27 27 28 28 28 28 28 28 28 27 27 26 26 26 26 25 25 25 25 24 24 23 23 22 23 23
22 22 22 22 23 25 26 27 27 27 27 28 28 28 28 28 27 27 28 28 29 29 29 29 29 29 28 28 27 27 27 27 26 26 26 26 26 25 25 25 25 24 25
25 25 26 26 27 27 28 28 29 28 29 29 29 29 30 30 30 30 30 30 30 30 30 31 30 29 29 28 27 27 27 27 27 27 27 27 27 26 27 27 26 26 26
28 28 29 29 29 29 30 31 31 31 31 31 31 31 31 31 31 31 31 30 30 30 31 32 31 30 29 28 28 27 27 27 28 28 28 29 28 28 28 28 28 27 28

GEFSMA_500_meanwind_270.txt.gz
Wind_Speed
5 5 5 5 4 3 3 2 2 2 2 3 3 3 3 4 4 4 4 5 6 6 7 7 7 7 8 8 8 8 8 8 8 8 8 8 8 8 9 9 10 10 10
5 5 4 4 4 3 3 2 2 2 2 3 3 3 4 5 5 5 5 6 6 7 7 8 8 8 9 9 9 9 8 8 9 9 9 9 9 10 10 10 11 11 12
5 5 5 3 3 3 3 2 2 2 3 3 4 4 5 5 6 6 7 7 8 8 9 9 9 10 10 10 10 10 9 9 10 10 10 10 10 11 11 12 12 13 13
3 4 3 3 3 3 3 3 3 4 4 3 4 4 5 7 8 8 8 9 9 9 10 10 10 11 11 11 11 10 10 10 10 11 11 11 12 12 12 12 12 12 12
3 2 2 2 2 3 3 3 3 4 4 5 5 5 6 8 8 8 9 10 10 10 11 11 11 12 12 11 11 11 11 11 11 11 11 12 12 12 12 12 12 12 12
2 2 2 2 2 2 3 3 3 4 5 5 6 6 7 8 9 9 10 11 11 11 11 11 11 11 12 12 12 12 12 12 12 12 12 12 12 13 12 12 12 11 12
2 3 2 2 2 2 3 3 3 4 5 6 6 7 7 9 10 10 10 11 12 12 12 12 12 12 12 12 12 12 12 12 12 13 13 13 13 13 13 12 11 11 11
3 3 2 2 2 2 3 3 4 5 5 6 6 7 8 10 11 11 10 11 11 12 13 13 13 13 12 13 13 12 12 12 13 13 13 13 13 13 13 13 13 13 12
4 3 2 2 2 3 3 4 5 6 6 7 7 8 10 11 12 12 12 12 13 13 13 13 13 14 14 13 13 13 13 13 13 13 14 14 13 13 14 14 13 13 13
4 3 3 2 2 3 4 4 5 6 7 8 9 10 11 12 13 13 13 13 14 14 14 13 14 14 14 15 14 13 13 14 14 14 14 14 14 14 14 14 14 14 14
3 3 3 2 2 3 5 6 6 7 8 9 9 10 12 13 14 14 14 14 15 14 14 13 14 14 15 15 15 14 14 15 15 15 14 14 15 15 15 14 14 13 14
3 3 3 4 3 4 5 7 7 8 9 10 11 12 13 14 15 15 15 15 15 14 14 14 15 15 15 16 16 16 16 16 15 15 15 15 15 16 16 15 14 14 14
4 4 5 5 6 6 7 8 9 9 10 11 12 14 14 16 16 16 16 16 16 15 15 15 16 15 16 16 17 17 17 17 17 16 16 16 16 16 16 15 15 15 15
6 6 6 7 7 7 9 10 10 11 11 12 14 15 15 16 16 17 17 17 17 17 16 16 17 17 17 17 18 18 18 17 18 17 17 17 16 17 16 16 16 16 16
7 7 8 8 8 9 10 11 11 13 13 14 15 16 16 16 17 18 18 18 17 17 17 18 18 18 18 18 18 19 18 18 18 18 18 18 17 17 16 17 17 17 17
8 8 9 10 10 11 11 12 13 14 15 15 16 16 16 17 18 19 19 19 19 19 18 18 19 19 19 19 19 19 19 19 18 18 19 18 18 17 17 17 18 18 17
9 10 10 11 12 12 13 14 15 15 16 17 17 17 17 17 18 19 19 20 20 20 20 20 20 20 20 20 20 20 19 19 19 19 19 19 19 18 18 18 18 18 18
12 13 13 13 14 14 15 16 17 17 17 17 18 18 18 18 19 20 20 20 21 22 22 21 22 22 22 22 22 22 21 21 21 21 20 20 21 20 20 20 20 19 19
14 15 16 17 16 17 18 18 19 18 19 19 20 20 20 20 21 21 21 22 23 23 23 23 23 24 24 24 24 23 23 23 23 22 21 21 22 22 21 21 21 20 20
17 17 19 19 19 19 20 20 20 20 20 21 22 22 22 23 23 23 23 24 24 24 25 25 25 25 26 26 25 25 25 24 24 23 23 23 23 23 22 22 21 21 21
18 19 21 21 21 21 22 22 23 23 23 23 24 24 25 25 25 25 25 24 25 25 26 26 26 27 27 27 27 26 26 25 25 25 25 25 24 24 23 23 22 22 22
21 22 22 23 23 23 23 23 23 23 24 25 26 26 26 26 27 28 27 26 26 26 27 27 27 28 28 28 28 28 28 27 27 26 27 26 26 25 25 24 23 23 22
23 24 24 24 24 24 25 25 25 25 27 27 28 29 29 29 29 29 28 28 28 28 28 29 29 29 29 29 30 30 30 29 28 28 27 27 27 26 26 25 24 24 24
26 26 26 26 26 26 27 27 28 29 29 30 30 31 31 30 30 30 29 29 29 29 30 30 31 31 31 31 31 32 31 31 30 29 28 27 27 27 26 26 26 26 25
28 28 28 29 29 29 29 29 30 31 31 31 32 32 31 30 30 30 30 30 31 31 32 32 32 32 32 31 32 32 33 32 31 30 29 28 28 28 27 27 27 26 26
30 30 30 30 30 30 31 31 32 32 33 33 33 32 31 30 31 31 31 32 32 32 33 33 33 33 33 32 33 33 33 32 31 30 29 30 30 29 28 28 28 27 27